Weather History for Harbor Springs, MI

Change the Weather History Date:

Monday, April 7, 2014

  Actual Average (KPLN) Record (KPLN)
Temperature  
Mean Temperature 43 °F -  
Max Temperature 55 °F 47 °F 82 °F (1991)
Min Temperature 31 °F 26 °F -2 °F (1982)
Degree Days  
Heating Degree Days 22    
Moisture  
Dew Point 28 °F    
Average Humidity 59    
Maximum Humidity 88    
Minimum Humidity 33    
Precipitation  
Precipitation 0.00 in - - ()
Sea Level Pressure  
Sea Level Pressure 29.79 in    
Wind  
Wind Speed 3 mph (ENE)    
Max Wind Speed 10 mph    
Max Gust Speed -    
Visibility 10 miles    
Events      
Averages and records for this station are not official NWS values.
T = Trace of Precipitation, MM = Missing Value Source: NWS Daily Summary

Daily Weather History Graph

Daily Weather History Graph

Search for Another Location

Airport:

Trip Planner

Search our weather history database for the weather conditions in past years. The results will help you decide how hot, cold, wet, or windy it might be!

Date:

Astronomy

Apr. 07, 2014 Rise Set
Actual Time 7:08 AM EDT 8:15 PM EDT
Civil Twilight 6:38 AM EDT 8:45 PM EDT
Nautical Twilight 6:02 AM EDT 9:22 PM EDT
Astronomical Twilight 5:24 AM EDT 10:00 PM EDT
Moon 12:56 PM EDT (4/7) 3:00 AM EDT (4/7)
Length of Visible Light 14h 07m
Length of Day
13h 06m
First Quarter, 53% of the Moon is Illuminated
Apr 7
First Quarter
Apr 15
Full
Apr 22
Last Quarter
Apr 29
New
May 6
First Quarter

Hourly Weather History & Observations

Time (EDT) Temp. Windchill Dew Point Humidity Pressure Visibility Wind Dir Wind Speed Gust Speed Precip Events Conditions
12:15 AM 35.6 °F - 29.3 °F 78% 29.97 in 10.0 mi Calm Calm - N/A   Clear
12:35 AM 35.4 °F 32.6 °F 29.1 °F 78% 29.97 in 10.0 mi NNE 3.5 mph - N/A   Clear
12:55 AM 32.9 °F 27.5 °F 28.9 °F 85% 29.96 in 10.0 mi ENE 5.8 mph - N/A   Clear
1:15 AM 32.0 °F 27.5 °F 28.8 °F 88% 29.95 in 10.0 mi NE 4.6 mph - N/A   Clear
1:35 AM 33.6 °F 28.4 °F 28.4 °F 81% 29.95 in 10.0 mi ENE 5.8 mph - N/A   Clear
1:55 AM 33.8 °F 29.6 °F 29.3 °F 84% 29.95 in 10.0 mi NNE 4.6 mph - N/A   Clear
2:15 AM 33.8 °F 30.8 °F 28.8 °F 82% 29.94 in 10.0 mi NE 3.5 mph - N/A   Clear
2:34 AM 32.0 °F 28.7 °F 28.2 °F 86% 29.94 in 10.0 mi ENE 3.5 mph - N/A   Clear
2:55 AM 32.5 °F 29.3 °F 28.2 °F 84% 29.93 in 10.0 mi ENE 3.5 mph - N/A   Scattered Clouds
3:15 AM 32.0 °F 28.7 °F 28.2 °F 86% 29.93 in 10.0 mi ENE 3.5 mph - N/A   Clear
3:34 AM 31.5 °F 28.1 °F 28.0 °F 87% 29.93 in 10.0 mi ENE 3.5 mph - N/A   Clear
3:55 AM 32.0 °F 28.7 °F 28.2 °F 86% 29.91 in 10.0 mi NNE 3.5 mph - N/A   Clear
4:15 AM 32.0 °F - 27.5 °F 83% 29.91 in 10.0 mi Calm Calm - N/A   Clear
4:34 AM 31.6 °F - 27.0 °F 83% 29.90 in 10.0 mi Calm Calm - N/A   Clear
4:55 AM 32.0 °F - 27.3 °F 83% 29.89 in 10.0 mi Calm Calm - N/A   Clear
5:15 AM 31.5 °F - 27.1 °F 84% 29.89 in 10.0 mi Calm Calm - N/A   Clear
5:34 AM 32.0 °F - 27.1 °F 82% 29.88 in 10.0 mi Calm Calm - N/A   Clear
5:55 AM 32.0 °F - 27.0 °F 82% 29.88 in 10.0 mi Calm Calm - N/A   Clear
6:15 AM 32.2 °F - 27.1 °F 82% 29.87 in 10.0 mi Calm Calm - N/A   Clear
6:35 AM 32.0 °F - 26.6 °F 80% 29.87 in 10.0 mi Calm Calm - N/A   Clear
6:55 AM 33.4 °F - 26.8 °F 77% 29.86 in 10.0 mi Calm Calm - N/A   Clear
7:15 AM 34.9 °F - 25.9 °F 70% 29.86 in 10.0 mi Calm Calm - N/A   Clear
7:35 AM 33.8 °F - 26.4 °F 74% 29.87 in 10.0 mi Calm Calm - N/A   Clear
7:55 AM 35.6 °F - 26.2 °F 69% 29.88 in 10.0 mi Calm Calm - N/A   Clear
8:15 AM 36.0 °F - 27.0 °F 70% 29.88 in 10.0 mi Calm Calm - N/A   Clear
8:35 AM 40.3 °F - 26.8 °F 59% 29.89 in 10.0 mi Calm Calm - N/A   Clear
8:55 AM 41.2 °F - 27.5 °F 58% 29.89 in 10.0 mi Calm Calm - N/A   Clear
9:15 AM 44.8 °F - 26.6 °F 49% 29.88 in 10.0 mi Calm Calm - N/A   Clear
9:35 AM 45.7 °F - 27.0 °F 48% 29.88 in 10.0 mi Calm Calm - N/A   Clear
9:55 AM 46.6 °F - 27.5 °F 47% 29.87 in 10.0 mi South 3.5 mph - N/A   Clear
10:15 AM 48.0 °F - 27.5 °F 45% 29.86 in 10.0 mi South 4.6 mph - N/A   Clear
10:35 AM 48.6 °F - 27.9 °F 45% 29.84 in 10.0 mi Calm Calm - N/A   Clear
10:55 AM 49.6 °F - 27.1 °F 42% 29.84 in 10.0 mi SSW 3.5 mph - N/A   Clear
11:15 AM 51.3 °F - 27.5 °F 40% 29.83 in 10.0 mi SW 3.5 mph - N/A   Clear
11:35 AM 52.2 °F - 27.0 °F 38% 29.83 in 10.0 mi WSW 3.5 mph - N/A   Clear
11:55 AM 52.7 °F - 27.5 °F 38% 29.83 in 10.0 mi Calm Calm - N/A   Clear
12:14 PM 53.4 °F - 27.9 °F 37% 29.82 in 10.0 mi Calm Calm - N/A   Clear
12:35 PM 54.5 °F - 28.8 °F 37% 29.81 in 10.0 mi Calm Calm - N/A   Clear
12:55 PM 54.1 °F - 28.6 °F 37% 29.79 in 10.0 mi Calm Calm - N/A   Clear
1:14 PM 54.5 °F - 28.9 °F 38% 29.79 in 10.0 mi SW 5.8 mph - N/A   Clear
1:35 PM 54.9 °F - 29.3 °F 38% 29.78 in 10.0 mi SW 5.8 mph - N/A   Clear
1:55 PM 54.5 °F - 28.9 °F 38% 29.76 in 10.0 mi SW 4.6 mph - N/A   Clear
2:14 PM 55.2 °F - 29.7 °F 38% 29.75 in 10.0 mi SW 4.6 mph - N/A   Clear
2:35 PM 55.2 °F - 29.7 °F 38% 29.74 in 10.0 mi SW 3.5 mph - N/A   Scattered Clouds
2:55 PM 49.3 °F - 31.1 °F 50% 29.74 in 10.0 mi SW 3.5 mph - N/A   Scattered Clouds
3:14 PM 49.8 °F - 31.8 °F 50% 29.73 in 10.0 mi Calm Calm - N/A   Scattered Clouds
3:35 PM 50.4 °F - 32.0 °F 49% 29.71 in 10.0 mi SW 3.5 mph - N/A   Mostly Cloudy
4:14 PM 48.2 °F - 30.4 °F 50% 29.70 in 10.0 mi SW 3.5 mph - N/A   Clear
4:35 PM 45.1 °F - 30.7 °F 57% 29.69 in 10.0 mi Calm Calm - N/A   Scattered Clouds
4:55 PM 45.9 °F - 31.3 °F 57% 29.68 in 10.0 mi Calm Calm - N/A   Mostly Cloudy
5:15 PM 47.1 °F - 31.5 °F 55% 29.66 in 10.0 mi Calm Calm - N/A   Scattered Clouds
5:35 PM 44.1 °F - 31.1 °F 60% 29.66 in 10.0 mi Calm Calm - N/A   Clear
5:55 PM 43.9 °F - 31.3 °F 61% 29.66 in 10.0 mi Calm Calm - N/A   Clear
6:15 PM 44.6 °F - 31.5 °F 60% 29.66 in 10.0 mi Calm Calm - N/A   Clear
6:35 PM 45.5 °F - 31.5 °F 58% 29.66 in 10.0 mi Calm Calm - N/A   Clear
6:55 PM 49.3 °F - 28.6 °F 45% 29.66 in 10.0 mi ENE 8.1 mph - N/A   Clear
7:15 PM 50.7 °F - 22.6 °F 33% 29.65 in 10.0 mi NE 9.2 mph - N/A   Clear
7:35 PM 49.5 °F - 23.0 °F 35% 29.65 in 10.0 mi NE 5.8 mph - N/A   Clear
7:55 PM 49.1 °F - 22.6 °F 35% 29.65 in 10.0 mi NE 6.9 mph - N/A   Clear
8:15 PM 48.2 °F - 22.6 °F 37% 29.65 in 10.0 mi NE 6.9 mph - N/A   Clear
8:35 PM 47.5 °F - 22.5 °F 37% 29.65 in 10.0 mi NE 5.8 mph - N/A   Clear
8:55 PM 45.9 °F 42.9 °F 24.3 °F 43% 29.65 in 10.0 mi ENE 5.8 mph - N/A   Scattered Clouds
9:15 PM 45.5 °F 42.5 °F 25.3 °F 45% 29.65 in 10.0 mi NE 5.8 mph - N/A   Clear
9:35 PM 44.6 °F 39.7 °F 26.2 °F 49% 29.65 in 10.0 mi ENE 9.2 mph - N/A   Mostly Cloudy
9:55 PM 43.9 °F 38.3 °F 26.6 °F 51% 29.65 in 10.0 mi ENE 10.4 mph - N/A   Scattered Clouds
10:15 PM 43.3 °F 39.2 °F 26.1 °F 51% 29.64 in 10.0 mi ENE 6.9 mph - N/A   Clear
10:35 PM 43.0 °F 40.3 °F 25.9 °F 51% 29.64 in 10.0 mi NE 4.6 mph - N/A   Clear
10:55 PM 42.6 °F 40.9 °F 25.5 °F 51% 29.63 in 10.0 mi NE 3.5 mph - N/A   Scattered Clouds
11:15 PM 42.6 °F - 25.0 °F 50% 29.62 in 10.0 mi Calm Calm - N/A   Scattered Clouds
11:35 PM 41.9 °F 40.0 °F 25.2 °F 52% 29.61 in 10.0 mi NNE 3.5 mph - N/A   Clear
11:55 PM 41.2 °F 39.2 °F 25.5 °F 54% 29.60 in 10.0 mi ENE 3.5 mph - N/A   Scattered Clouds